Location: Rehoboth Beach
(38.7438°N, 75.1341°W)
Time: 13:23:25
(UTC-04:00)

Hubble Space Telescope - Visible Passes

Search period start: 23 October 2017 00:00
Search period end: 02 November 2017 00:00
Orbit: 537 x 541 km, 28.5° (Epoch: 23 October)

Date Brightness Start Highest point End Pass type
(mag) Time Alt. Az. Time Alt. Az. Time Alt. Az.
23 Oct 2.7 19:57:38 10° SW 20:00:30 19° S 20:00:30 19° S visible
24 Oct 2.6 19:47:18 10° SW 19:50:17 19° S 19:50:53 19° SSE visible
25 Oct 2.6 19:37:00 10° SW 19:40:00 19° S 19:41:16 17° SSE visible
26 Oct 2.8 19:26:44 10° SW 19:29:43 19° S 19:31:41 14° SSE visible
27 Oct 2.9 19:16:31 10° SW 19:19:25 18° S 19:22:07 11° SE visible
28 Oct 3.0 19:06:22 10° SW 19:09:08 17° S 19:11:53 10° SE visible
29 Oct 3.2 18:56:16 10° SW 18:58:49 16° S 19:01:23 10° SSE visible
30 Oct 3.3 18:46:14 10° SW 18:48:31 14° SSW 18:50:47 10° SSE visible
31 Oct 3.5 18:36:22 10° SW 18:38:12 13° SSW 18:40:01 10° S visible
01 Nov 3.7 18:26:51 10° SSW 18:27:52 11° SSW 18:28:54 10° S visible
